RYR30AZ LEZL-LEPA

Flight info

Callsign RYR30AZ
Flight time N/A
Altitude 38000
Route BUDIT DCT ETURA DCT TOSTO DCT OLPOS DCT BEGOX DCT LASPO DCT ORVUS M871 GODOX
Aircraft A320/M-SDE3FGHIRWY/LB1

Departure

Time 2026-04-22 15:17
Airport Seville Airport (LEZL)

Arrival

Time N/A
Airport Palma de Mallorca Airport (LEPA)
Time Latitude Longitude Altitude Speed Heading
2026-04-22 14:51 37.42217 -5.89951 94 ft 0 kts 314°
2026-04-22 15:08 37.42215 -5.89949 95 ft 3 kts 314°
2026-04-22 15:08 37.42196 -5.89926 94 ft 4 kts 322°
2026-04-22 15:08 37.42174 -5.89908 97 ft 4 kts 340°
2026-04-22 15:08 37.42150 -5.89904 94 ft 4 kts 28°
2026-04-22 15:09 37.42144 -5.89908 96 ft 0 kts 44°
2026-04-22 15:11 37.42152 -5.89899 94 ft 3 kts 44°
2026-04-22 15:11 37.42173 -5.89873 94 ft 6 kts 44°
2026-04-22 15:11 37.42208 -5.89831 94 ft 8 kts 44°
2026-04-22 15:12 37.42254 -5.89769 94 ft 11 kts 56°
2026-04-22 15:12 37.42233 -5.89679 94 ft 13 kts 133°
2026-04-22 15:12 37.42166 -5.89593 95 ft 14 kts 134°
2026-04-22 15:12 37.42094 -5.89500 98 ft 16 kts 134°
2026-04-22 15:13 37.42014 -5.89395 98 ft 16 kts 134°
2026-04-22 15:13 37.41985 -5.89260 100 ft 18 kts 88°
2026-04-22 15:13 37.41985 -5.89098 101 ft 20 kts 90°
2026-04-22 15:13 37.41985 -5.88916 102 ft 22 kts 90°
2026-04-22 15:14 37.41985 -5.88784 103 ft 23 kts 90°
2026-04-22 15:14 37.41986 -5.88498 104 ft 26 kts 90°
2026-04-22 15:14 37.41986 -5.88263 106 ft 28 kts 89°
2026-04-22 15:14 37.41988 -5.88013 107 ft 29 kts 90°
2026-04-22 15:15 37.41988 -5.87779 108 ft 18 kts 89°
2026-04-22 15:15 37.41988 -5.87612 109 ft 21 kts 90°
2026-04-22 15:15 37.41962 -5.87474 111 ft 16 kts 124°
2026-04-22 15:15 37.41866 -5.87426 116 ft 15 kts 180°
2026-04-22 15:16 37.41802 -5.87448 118 ft 9 kts 246°
2026-04-22 15:16 37.41799 -5.87547 116 ft 17 kts 269°
2026-04-22 15:16 37.41797 -5.88009 109 ft 90 kts 269°
2026-04-22 15:16 37.41795 -5.89053 102 ft 146 kts 270°
2026-04-22 15:17 37.41795 -5.90373 574 ft 150 kts 270°
2026-04-22 15:17 37.41807 -5.91680 1169 ft 152 kts 272°
2026-04-22 15:17 37.42179 -5.92969 1556 ft 171 kts 312°
2026-04-22 15:17 37.43110 -5.94039 1860 ft 193 kts 317°
2026-04-22 15:18 37.44165 -5.95239 2171 ft 216 kts 317°
2026-04-22 15:18 37.45323 -5.96575 2575 ft 238 kts 316°
2026-04-22 15:18 37.46601 -5.98060 3126 ft 259 kts 316°
2026-04-22 15:18 37.47946 -5.99627 4017 ft 267 kts 316°
2026-04-22 15:19 37.49304 -6.01211 4956 ft 272 kts 317°
2026-04-22 15:19 37.50895 -6.02524 5843 ft 278 kts 339°
2026-04-22 15:19 37.52812 -6.02901 6707 ft 284 kts
2026-04-22 15:19 37.54700 -6.02168 7534 ft 289 kts 31°
2026-04-22 15:20 37.55739 -6.01115 8063 ft 292 kts 49°
2026-04-22 15:20 37.56882 -5.98038 9093 ft 296 kts 80°
2026-04-22 15:20 37.57221 -5.95469 9852 ft 299 kts 81°
2026-04-22 15:20 37.57555 -5.92833 10332 ft 314 kts 81°
2026-04-22 15:21 37.57909 -5.90019 10488 ft 336 kts 81°
2026-04-22 15:21 37.58283 -5.87087 10851 ft 348 kts 81°
2026-04-22 15:21 37.58675 -5.84055 11410 ft 353 kts 81°
2026-04-22 15:21 37.59076 -5.80986 11983 ft 357 kts 81°
2026-04-22 15:22 37.59480 -5.77885 12537 ft 360 kts 81°
2026-04-22 15:22 37.59886 -5.74752 13069 ft 364 kts 81°
2026-04-22 15:22 37.60292 -5.71594 13581 ft 367 kts 81°
2026-04-22 15:22 37.60702 -5.68401 14072 ft 370 kts 81°
2026-04-22 15:23 37.61110 -5.65227 14542 ft 373 kts 81°
2026-04-22 15:23 37.61528 -5.61984 15002 ft 376 kts 81°
2026-04-22 15:23 37.61951 -5.58712 15441 ft 379 kts 81°
2026-04-22 15:23 37.62376 -5.55418 15871 ft 382 kts 81°
2026-04-22 15:24 37.62802 -5.52097 16289 ft 385 kts 81°
2026-04-22 15:24 37.63228 -5.48752 16693 ft 388 kts 81°
2026-04-22 15:24 37.63653 -5.45383 17085 ft 390 kts 81°
2026-04-22 15:24 37.64080 -5.41988 17467 ft 393 kts 81°
2026-04-22 15:25 37.64506 -5.38612 17836 ft 396 kts 81°
2026-04-22 15:25 37.64940 -5.35177 18199 ft 398 kts 81°
2026-04-22 15:25 37.65376 -5.31715 18560 ft 401 kts 81°
2026-04-22 15:25 37.65812 -5.28228 18909 ft 403 kts 81°
2026-04-22 15:26 37.66251 -5.24722 19244 ft 406 kts 81°
2026-04-22 15:26 37.66694 -5.21199 19576 ft 408 kts 81°
2026-04-22 15:26 37.67139 -5.17647 19902 ft 411 kts 81°
2026-04-22 15:26 37.67579 -5.14128 20218 ft 413 kts 81°
2026-04-22 15:27 37.68027 -5.10534 20527 ft 415 kts 81°
2026-04-22 15:27 37.68473 -5.06926 20824 ft 417 kts 81°
2026-04-22 15:27 37.68920 -5.03293 21114 ft 420 kts 81°
2026-04-22 15:27 37.69367 -4.99644 21389 ft 422 kts 81°
2026-04-22 15:28 37.69818 -4.95973 21660 ft 424 kts 81°
2026-04-22 15:28 37.70270 -4.92290 21916 ft 426 kts 81°
2026-04-22 15:28 37.70718 -4.88636 22163 ft 428 kts 81°
2026-04-22 15:28 37.71170 -4.84918 22403 ft 430 kts 81°
2026-04-22 15:29 37.71621 -4.81179 22631 ft 431 kts 82°
2026-04-22 15:29 37.72073 -4.77430 22852 ft 433 kts 82°
2026-04-22 15:29 37.72528 -4.73664 23060 ft 435 kts 81°
2026-04-22 15:30 37.73283 -4.67368 23389 ft 437 kts 82°
2026-04-22 15:30 37.73890 -4.62280 23638 ft 439 kts 82°
2026-04-22 15:30 37.74341 -4.58511 23814 ft 441 kts 82°
2026-04-22 15:30 37.74802 -4.54676 23986 ft 442 kts 82°
2026-04-22 15:31 37.75264 -4.50833 24151 ft 443 kts 82°
2026-04-22 15:31 37.75724 -4.46972 24309 ft 445 kts 82°
2026-04-22 15:31 37.76181 -4.43099 24471 ft 445 kts 82°
2026-04-22 15:31 37.76633 -4.39228 24617 ft 447 kts 82°
2026-04-22 15:32 37.77084 -4.35339 24751 ft 448 kts 82°
2026-04-22 15:32 37.77533 -4.31465 24877 ft 449 kts 82°
2026-04-22 15:32 37.77979 -4.27640 25001 ft 449 kts 82°
2026-04-22 15:32 37.78438 -4.23731 25126 ft 450 kts 82°
2026-04-22 15:33 37.78895 -4.19813 25252 ft 451 kts 82°
2026-04-22 15:33 37.79349 -4.15896 25376 ft 451 kts 82°
2026-04-22 15:33 37.79800 -4.11972 25502 ft 451 kts 82°
2026-04-22 15:33 37.80250 -4.08046 25627 ft 451 kts 82°
2026-04-22 15:34 37.80701 -4.04115 25751 ft 452 kts 82°
2026-04-22 15:34 37.81151 -4.00189 25876 ft 452 kts 82°
2026-04-22 15:34 37.81594 -3.96311 25999 ft 452 kts 82°
2026-04-22 15:34 37.82041 -3.92379 26124 ft 452 kts 82°
2026-04-22 15:35 37.82343 -3.89719 26208 ft 452 kts 82°
2026-04-22 15:35 37.82926 -3.84538 26372 ft 452 kts 82°
2026-04-22 15:35 37.83366 -3.80606 26497 ft 452 kts 82°
2026-04-22 15:35 37.83806 -3.76669 26622 ft 452 kts 82°
2026-04-22 15:36 37.84247 -3.72736 26747 ft 452 kts 82°
2026-04-22 15:36 37.84691 -3.68794 26871 ft 452 kts 82°
2026-04-22 15:36 37.85127 -3.64914 26994 ft 452 kts 82°
2026-04-22 15:36 37.85564 -3.60973 27119 ft 452 kts 82°
2026-04-22 15:37 37.85997 -3.57033 27244 ft 452 kts 82°
2026-04-22 15:37 37.86429 -3.53096 27369 ft 452 kts 82°
2026-04-22 15:37 37.86858 -3.49149 27494 ft 452 kts 82°
2026-04-22 15:37 37.87285 -3.45214 27619 ft 452 kts 82°
2026-04-22 15:38 37.87715 -3.41262 27744 ft 452 kts 82°
2026-04-22 15:38 37.88567 -3.33431 27992 ft 452 kts 82°
2026-04-22 15:38 37.88991 -3.29486 28117 ft 453 kts 82°
2026-04-22 15:39 37.89415 -3.25536 28242 ft 453 kts 82°
2026-04-22 15:39 37.89840 -3.21586 28367 ft 453 kts 82°
2026-04-22 15:39 37.90265 -3.17640 28491 ft 453 kts 82°
2026-04-22 15:39 37.90689 -3.13689 28617 ft 453 kts 82°
2026-04-22 15:40 37.91111 -3.09739 28741 ft 453 kts 82°
2026-04-22 15:40 37.91525 -3.05842 28865 ft 453 kts 82°
2026-04-22 15:40 37.91943 -3.01890 28990 ft 453 kts 82°
2026-04-22 15:40 37.92360 -2.97932 29114 ft 453 kts 83°
2026-04-22 15:41 37.92777 -2.93983 29239 ft 453 kts 82°
2026-04-22 15:41 37.93193 -2.90027 29365 ft 453 kts 83°
2026-04-22 15:41 37.93605 -2.86073 29489 ft 453 kts 83°
2026-04-22 15:41 37.94017 -2.82111 29614 ft 453 kts 83°
2026-04-22 15:42 37.94420 -2.78209 29737 ft 453 kts 83°
2026-04-22 15:42 37.94826 -2.74247 29862 ft 453 kts 83°
2026-04-22 15:42 37.95230 -2.70291 29987 ft 453 kts 83°
2026-04-22 15:42 37.95634 -2.66333 30112 ft 453 kts 83°
2026-04-22 15:43 37.96038 -2.62368 30237 ft 453 kts 83°
2026-04-22 15:43 37.96441 -2.58412 30361 ft 453 kts 82°
2026-04-22 15:43 37.97088 -2.54505 30487 ft 453 kts 73°
2026-04-22 15:43 37.98224 -2.50798 30612 ft 453 kts 63°
2026-04-22 15:44 37.99806 -2.47417 30735 ft 453 kts 54°
2026-04-22 15:44 38.01818 -2.44354 30860 ft 453 kts 46°
2026-04-22 15:44 38.03997 -2.41464 30986 ft 453 kts 46°
2026-04-22 15:44 38.06167 -2.38571 31111 ft 453 kts 46°
2026-04-22 15:45 38.08331 -2.35669 31235 ft 453 kts 46°
2026-04-22 15:45 38.10495 -2.32756 31360 ft 453 kts 46°
2026-04-22 15:45 38.12656 -2.29846 31485 ft 453 kts 46°
2026-04-22 15:45 38.14816 -2.26939 31610 ft 453 kts 46°
2026-04-22 15:46 38.16946 -2.24068 31733 ft 453 kts 46°
2026-04-22 15:46 38.19106 -2.21154 31858 ft 453 kts 46°
2026-04-22 15:46 38.21222 -2.18192 31982 ft 452 kts 51°
2026-04-22 15:46 38.23175 -2.15059 32109 ft 452 kts 52°
2026-04-22 15:47 38.25124 -2.11917 32234 ft 452 kts 52°
2026-04-22 15:47 38.27073 -2.08772 32359 ft 452 kts 52°
2026-04-22 15:47 38.29017 -2.05627 32483 ft 452 kts 52°
2026-04-22 15:47 38.30962 -2.02478 32608 ft 452 kts 52°
2026-04-22 15:48 38.32881 -1.99369 32731 ft 452 kts 52°
2026-04-22 15:48 38.34823 -1.96220 32868 ft 452 kts 52°
2026-04-22 15:48 38.36763 -1.93069 32988 ft 452 kts 52°
2026-04-22 15:48 38.38708 -1.89911 33011 ft 454 kts 52°
2026-04-22 15:49 38.42637 -1.83531 33009 ft 460 kts 52°
2026-04-22 15:49 38.46599 -1.77079 33009 ft 464 kts 52°
2026-04-22 15:50 38.50569 -1.70604 33009 ft 468 kts 52°
2026-04-22 15:50 38.54587 -1.64021 33009 ft 471 kts 52°
2026-04-22 15:51 38.58636 -1.57391 33009 ft 474 kts 52°
2026-04-22 15:51 38.62697 -1.50717 33009 ft 477 kts 52°
2026-04-22 15:52 38.66743 -1.44046 33009 ft 479 kts 52°
2026-04-22 15:52 38.70832 -1.37302 33009 ft 480 kts 52°
2026-04-22 15:53 38.74936 -1.30532 33009 ft 482 kts 52°
2026-04-22 15:53 38.79051 -1.23740 33005 ft 483 kts 52°
2026-04-22 15:54 38.83136 -1.16958 32985 ft 484 kts 52°
2026-04-22 15:54 38.87253 -1.10110 32982 ft 485 kts 52°
2026-04-22 15:55 38.91367 -1.03242 33012 ft 485 kts 52°
2026-04-22 15:55 38.94788 -0.97540 33009 ft 485 kts 52°
2026-04-22 15:56 38.99575 -0.89538 33009 ft 486 kts 52°
2026-04-22 15:56 39.03022 -0.83755 33009 ft 486 kts 52°
2026-04-22 15:57 39.07229 -0.77029 33006 ft 486 kts 45°
2026-04-22 15:57 39.12386 -0.71389 33008 ft 486 kts 39°
2026-04-22 15:58 39.18451 -0.64934 33009 ft 487 kts 39°
2026-04-22 15:58 39.22817 -0.60254 33009 ft 487 kts 41°
2026-04-22 15:59 39.25125 -0.57148 33007 ft 487 kts 52°
2026-04-22 15:59 39.26943 -0.53468 33009 ft 487 kts 64°
2026-04-22 15:59 39.28163 -0.49404 33009 ft 486 kts 75°
2026-04-22 15:59 39.28745 -0.45119 33010 ft 486 kts 86°
2026-04-22 16:00 39.29210 -0.36417 33009 ft 486 kts 86°
2026-04-22 16:00 39.29667 -0.27764 33009 ft 486 kts 86°
2026-04-22 16:01 39.30126 -0.19047 33007 ft 487 kts 86°
2026-04-22 16:01 39.30575 -0.10331 33003 ft 487 kts 86°
2026-04-22 16:02 39.31019 -0.01612 33001 ft 487 kts 86°
2026-04-22 16:02 39.31457 0.07047 33001 ft 487 kts 86°
2026-04-22 16:03 39.31880 0.15776 33001 ft 487 kts 86°
2026-04-22 16:03 39.32293 0.24503 33001 ft 487 kts 86°
2026-04-22 16:04 39.32706 0.33244 33002 ft 487 kts 86°
2026-04-22 16:04 39.33107 0.41917 33002 ft 487 kts 87°
2026-04-22 16:05 39.33501 0.50648 33003 ft 487 kts 86°
2026-04-22 16:05 39.33900 0.59385 33004 ft 487 kts 87°
2026-04-22 16:06 39.34292 0.68121 32498 ft 488 kts 87°
2026-04-22 16:06 39.34483 0.72479 31856 ft 483 kts 87°
2026-04-22 16:06 39.34667 0.76728 31264 ft 478 kts 87°
2026-04-22 16:07 39.34847 0.80990 30660 ft 473 kts 87°
2026-04-22 16:07 39.35025 0.85208 30060 ft 468 kts 87°
2026-04-22 16:07 39.35204 0.89389 29462 ft 463 kts 87°
2026-04-22 16:07 39.35383 0.93523 28872 ft 459 kts 87°
2026-04-22 16:08 39.35557 0.97622 28290 ft 454 kts 87°
2026-04-22 16:08 39.35725 1.01676 27720 ft 450 kts 87°
2026-04-22 16:08 39.35889 1.05690 27157 ft 446 kts 87°
2026-04-22 16:08 39.36048 1.09619 26619 ft 441 kts 87°
2026-04-22 16:09 39.36202 1.13561 26082 ft 438 kts 87°
2026-04-22 16:09 39.36354 1.17473 25568 ft 434 kts 87°
2026-04-22 16:09 39.36505 1.21345 25060 ft 430 kts 87°
2026-04-22 16:09 39.36656 1.25183 24568 ft 426 kts 87°
2026-04-22 16:10 39.36807 1.28995 24075 ft 423 kts 87°
2026-04-22 16:10 39.36957 1.32777 23584 ft 420 kts 87°
2026-04-22 16:10 39.37101 1.36532 23093 ft 417 kts 87°
2026-04-22 16:10 39.37246 1.40259 22595 ft 413 kts 86°
2026-04-22 16:11 39.37637 1.43867 22108 ft 410 kts 81°
2026-04-22 16:11 39.38114 1.47479 21596 ft 406 kts 80°
2026-04-22 16:11 39.38590 1.51066 21084 ft 403 kts 80°
2026-04-22 16:11 39.39060 1.54620 20560 ft 399 kts 81°
2026-04-22 16:12 39.39521 1.58142 20037 ft 396 kts 81°
2026-04-22 16:12 39.39975 1.61634 19511 ft 392 kts 81°
2026-04-22 16:12 39.40425 1.65093 18986 ft 388 kts 81°
2026-04-22 16:12 39.40719 1.67366 18637 ft 386 kts 81°
2026-04-22 16:13 39.41163 1.70800 18117 ft 382 kts 81°
2026-04-22 16:13 39.41597 1.74135 17597 ft 379 kts 81°
2026-04-22 16:13 39.42032 1.77479 17082 ft 376 kts 81°
2026-04-22 16:13 39.42463 1.80797 16568 ft 372 kts 81°
2026-04-22 16:14 39.42891 1.84086 16053 ft 369 kts 81°
2026-04-22 16:14 39.43314 1.87347 15544 ft 366 kts 81°
2026-04-22 16:14 39.43729 1.90578 15039 ft 363 kts 81°
2026-04-22 16:14 39.44138 1.93784 14533 ft 360 kts 81°
2026-04-22 16:15 39.44539 1.96952 14201 ft 352 kts 81°
2026-04-22 16:15 39.44924 1.99981 14075 ft 339 kts 81°
2026-04-22 16:15 39.45350 2.02921 13902 ft 329 kts 75°
2026-04-22 16:15 39.46060 2.05707 13644 ft 323 kts 71°
2026-04-22 16:16 39.46784 2.08441 13392 ft 320 kts 71°
2026-04-22 16:16 39.47507 2.11160 13141 ft 319 kts 71°
2026-04-22 16:16 39.48224 2.13863 12891 ft 317 kts 71°
2026-04-22 16:16 39.48935 2.16559 12641 ft 316 kts 71°
2026-04-22 16:17 39.49641 2.19245 12390 ft 314 kts 71°
2026-04-22 16:17 39.50344 2.21918 12140 ft 313 kts 71°
2026-04-22 16:17 39.51033 2.24539 11893 ft 311 kts 71°
2026-04-22 16:17 39.51726 2.27190 11643 ft 310 kts 71°
2026-04-22 16:18 39.52411 2.29833 11392 ft 309 kts 71°
2026-04-22 16:18 39.53091 2.32462 11142 ft 307 kts 71°
2026-04-22 16:18 39.53772 2.35083 10891 ft 306 kts 71°
2026-04-22 16:18 39.54450 2.37686 10641 ft 305 kts 71°
2026-04-22 16:19 39.55297 2.40191 10390 ft 303 kts 59°
2026-04-22 16:19 39.56468 2.42454 10140 ft 302 kts 55°
2026-04-22 16:19 39.57644 2.44661 9919 ft 300 kts 55°
2026-04-22 16:19 39.58831 2.46891 9796 ft 301 kts 56°
2026-04-22 16:20 39.60012 2.49121 9671 ft 300 kts 56°
2026-04-22 16:20 39.61192 2.51351 9546 ft 299 kts 56°
2026-04-22 16:20 39.62369 2.53573 9420 ft 299 kts 56°
2026-04-22 16:20 39.63546 2.55787 9296 ft 298 kts 55°
2026-04-22 16:21 39.64721 2.58002 9169 ft 297 kts 56°
2026-04-22 16:21 39.65874 2.60181 9045 ft 297 kts 56°
2026-04-22 16:21 39.67040 2.62391 8920 ft 296 kts 56°
2026-04-22 16:21 39.68201 2.64594 8795 ft 295 kts 56°
2026-04-22 16:22 39.70521 2.68987 8543 ft 294 kts 56°
2026-04-22 16:22 39.71676 2.71177 8418 ft 294 kts 56°
2026-04-22 16:22 39.72823 2.73359 8262 ft 292 kts 56°
2026-04-22 16:23 39.75095 2.77687 8012 ft 291 kts 56°
2026-04-22 16:23 39.76234 2.79860 7816 ft 290 kts 56°
2026-04-22 16:23 39.77367 2.82020 7473 ft 288 kts 56°
2026-04-22 16:24 39.78493 2.84167 7140 ft 287 kts 56°
2026-04-22 16:24 39.80726 2.88427 6463 ft 283 kts 56°
2026-04-22 16:24 39.81831 2.90538 6118 ft 282 kts 56°
2026-04-22 16:25 39.82933 2.92642 5788 ft 280 kts 56°
2026-04-22 16:25 39.85097 2.96784 5152 ft 277 kts 56°
2026-04-22 16:25 39.86178 2.98856 4824 ft 276 kts 56°
2026-04-22 16:26 39.87246 3.00920 4497 ft 274 kts 58°
2026-04-22 16:26 39.87920 3.03205 4181 ft 271 kts 82°
2026-04-22 16:26 39.87855 3.05635 3850 ft 269 kts 105°
2026-04-22 16:26 39.87070 3.07812 3525 ft 266 kts 128°
2026-04-22 16:27 39.85707 3.09407 3201 ft 264 kts 151°
2026-04-22 16:27 39.84019 3.10187 2895 ft 261 kts 174°
2026-04-22 16:27 39.82238 3.10139 2990 ft 260 kts 186°